owner,sensor,date,latitude,longitude,vertical_datum,wind_speed,wind_to_direction,wind_speed_of_gust,qcFlag 
COMPS,ioos:station:USF.COMPS:C12:1,2017-03-01T00:05:00Z,27.4980,-83.7220,3.0,0.48,149.57,0.94,'1111122,1111122,1111122' 
COMPS,ioos:station:USF.COMPS:C12:1,2017-03-01T00:35:00Z,27.4980,-83.7220,3.0,1.08,182.7,1.45,'1111122,1111122,1111122' 
COMPS,ioos:station:USF.COMPS:C12:1,2017-03-01T01:05:00Z,27.4980,-83.7220,3.0,1.45,168.2,1.94,'1111122,1111122,1111122' 
COMPS,ioos:station:USF.COMPS:C12:1,2017-03-01T01:35:00Z,27.4980,-83.7220,3.0,1.5,168.07,2.02,'1111122,1111122,1111122' 
COMPS,ioos:station:USF.COMPS:C12:1,2017-03-01T02:05:00Z,27.4980,-83.7220,3.0,2.3,177.12,2.93,'1111122,1111122,1111122' 
COMPS,ioos:station:USF.COMPS:C12:1,2017-03-01T02:35:00Z,27.4980,-83.7220,3.0,1.91,173.96,2.51,'1111122,1111122,1111122' 
COMPS,ioos:station:USF.COMPS:C12:1,2017-03-01T03:05:00Z,27.4980,-83.7220,3.0,1.63,192.5,2.2,'1111122,1111122,1111122' 
COMPS,ioos:station:USF.COMPS:C12:1,2017-03-01T03:35:00Z,27.4980,-83.7220,3.0,1.35,117.9,2.1,'1111122,1111122,1111122' 
COMPS,ioos:station:USF.COMPS:C12:1,2017-03-01T04:05:00Z,27.4980,-83.7220,3.0,3.18,91.66,3.98,'1111122,1111122,1111122' 
COMPS,ioos:station:USF.COMPS:C12:1,2017-03-01T04:35:00Z,27.4980,-83.7220,3.0,2.95,113.21,3.99,'1111122,1111122,1111122' 
COMPS,ioos:station:USF.COMPS:C12:1,2017-03-01T05:05:00Z,27.4980,-83.7220,3.0,3.04,124.64,3.81,'1111122,1111122,1111122' 
COMPS,ioos:station:USF.COMPS:C12:1,2017-03-01T05:35:00Z,27.4980,-83.7220,3.0,3.53,123.43,4.69,'1111122,1111122,1111122' 
COMPS,ioos:station:USF.COMPS:C12:1,2017-03-01T06:05:00Z,27.4980,-83.7220,3.0,3.43,128.03,4.82,'1111122,1111122,1111122' 
COMPS,ioos:station:USF.COMPS:C12:1,2017-03-01T06:35:00Z,27.4980,-83.7220,3.0,3.24,123.09,4.09,'1111122,1111122,1111122' 
COMPS,ioos:station:USF.COMPS:C12:1,2017-03-01T07:05:00Z,27.4980,-83.7220,3.0,3.34,112.52,4.15,'1111122,1111122,1111122' 
COMPS,ioos:station:USF.COMPS:C12:1,2017-03-01T07:35:00Z,27.4980,-83.7220,3.0,3.1,119.89,3.92,'1111122,1111122,1111122' 
COMPS,ioos:station:USF.COMPS:C12:1,2017-03-01T08:05:00Z,27.4980,-83.7220,3.0,3.86,121.82,4.56,'1111122,1111122,1111122' 
COMPS,ioos:station:USF.COMPS:C12:1,2017-03-01T08:35:00Z,27.4980,-83.7220,3.0,4.15,122.1,5.21,'1111122,1111122,1111122' 
COMPS,ioos:station:USF.COMPS:C12:1,2017-03-01T09:05:00Z,27.4980,-83.7220,3.0,4.43,128.96,5.27,'1111122,1111122,1111122' 
COMPS,ioos:station:USF.COMPS:C12:1,2017-03-01T09:35:00Z,27.4980,-83.7220,3.0,4.69,130.71,5.71,'1111122,1111122,1111122' 
COMPS,ioos:station:USF.COMPS:C12:1,2017-03-01T10:05:00Z,27.4980,-83.7220,3.0,4.34,127.8,5.26,'1111122,1111122,1111122' 
COMPS,ioos:station:USF.COMPS:C12:1,2017-03-01T10:35:00Z,27.4980,-83.7220,3.0,3.89,128.79,4.73,'1111122,1111122,1111122' 
COMPS,ioos:station:USF.COMPS:C12:1,2017-03-01T11:05:00Z,27.4980,-83.7220,3.0,3.49,115.95,4.32,'1111122,1111122,1111122' 
COMPS,ioos:station:USF.COMPS:C12:1,2017-03-01T11:35:00Z,27.4980,-83.7220,3.0,3.81,109.03,4.89,'1111122,1111122,1111122' 
COMPS,ioos:station:USF.COMPS:C12:1,2017-03-01T12:05:00Z,27.4980,-83.7220,3.0,4.08,116.67,4.75,'1111122,1111122,1111122' 
COMPS,ioos:station:USF.COMPS:C12:1,2017-03-01T12:35:00Z,27.4980,-83.7220,3.0,3.09,111.59,4.04,'1111122,1111122,1111122' 
COMPS,ioos:station:USF.COMPS:C12:1,2017-03-01T13:05:00Z,27.4980,-83.7220,3.0,3.24,112.81,3.97,'1111122,1111122,1111122' 
COMPS,ioos:station:USF.COMPS:C12:1,2017-03-01T13:35:00Z,27.4980,-83.7220,3.0,4.1,119.78,5.01,'1111122,1111122,1111122' 
COMPS,ioos:station:USF.COMPS:C12:1,2017-03-01T14:05:00Z,27.4980,-83.7220,3.0,4.02,121.2,4.9,'1111122,1111122,1111122' 
COMPS,ioos:station:USF.COMPS:C12:1,2017-03-01T14:35:00Z,27.4980,-83.7220,3.0,3.81,116.13,4.61,'1111122,1111122,1111122' 
COMPS,ioos:station:USF.COMPS:C12:1,2017-03-01T15:05:00Z,27.4980,-83.7220,3.0,2.98,107.12,3.81,'1111122,1111122,1111122' 
COMPS,ioos:station:USF.COMPS:C12:1,2017-03-01T15:35:00Z,27.4980,-83.7220,3.0,3.01,112.26,3.68,'1111122,1111122,1111122' 
COMPS,ioos:station:USF.COMPS:C12:1,2017-03-01T16:05:00Z,27.4980,-83.7220,3.0,3.81,125.94,4.81,'1111122,1111122,1111122' 
COMPS,ioos:station:USF.COMPS:C12:1,2017-03-01T16:35:00Z,27.4980,-83.7220,3.0,5.57,132.98,6.96,'1111122,1111122,1111122' 
COMPS,ioos:station:USF.COMPS:C12:1,2017-03-01T17:05:00Z,27.4980,-83.7220,3.0,6.02,134.03,7.37,'1111122,1111122,1111122' 
COMPS,ioos:station:USF.COMPS:C12:1,2017-03-01T17:35:00Z,27.4980,-83.7220,3.0,5.59,134.18,6.78,'1111122,1111122,1111122' 
COMPS,ioos:station:USF.COMPS:C12:1,2017-03-01T18:05:00Z,27.4980,-83.7220,3.0,5.06,136.07,5.84,'1111122,1111122,1111122' 
COMPS,ioos:station:USF.COMPS:C12:1,2017-03-01T18:35:00Z,27.4980,-83.7220,3.0,4.96,133.32,6.0,'1111122,1111122,1111122' 
COMPS,ioos:station:USF.COMPS:C12:1,2017-03-01T19:05:00Z,27.4980,-83.7220,3.0,4.76,133.41,5.76,'1111122,1111122,1111122' 
COMPS,ioos:station:USF.COMPS:C12:1,2017-03-01T19:35:00Z,27.4980,-83.7220,3.0,4.61,137.2,5.97,'1111122,1111122,1111122' 
COMPS,ioos:station:USF.COMPS:C12:1,2017-03-01T20:05:00Z,27.4980,-83.7220,3.0,4.12,142.55,5.31,'1111122,1111122,1111122' 
COMPS,ioos:station:USF.COMPS:C12:1,2017-03-01T20:35:00Z,27.4980,-83.7220,3.0,3.42,142.54,4.35,'1111122,1111122,1111122' 
COMPS,ioos:station:USF.COMPS:C12:1,2017-03-01T21:05:00Z,27.4980,-83.7220,3.0,4.02,140.47,4.73,'1111122,1111122,1111122' 
COMPS,ioos:station:USF.COMPS:C12:1,2017-03-01T21:35:00Z,27.4980,-83.7220,3.0,4.07,142.87,5.12,'1111122,1111122,1111122' 
COMPS,ioos:station:USF.COMPS:C12:1,2017-03-01T22:05:00Z,27.4980,-83.7220,3.0,4.06,151.45,4.77,'1111122,1111122,1111122' 
COMPS,ioos:station:USF.COMPS:C12:1,2017-03-01T22:35:00Z,27.4980,-83.7220,3.0,4.22,149.73,5.25,'1111122,1111122,1111122' 
COMPS,ioos:station:USF.COMPS:C12:1,2017-03-01T23:05:00Z,27.4980,-83.7220,3.0,3.44,154.66,4.36,'1111122,1111122,1111122' 
COMPS,ioos:station:USF.COMPS:C12:1,2017-03-01T23:35:00Z,27.4980,-83.7220,3.0,4.61,161.18,5.79,'1111122,1111122,1111122' 
COMPS,ioos:station:USF.COMPS:C12:1,2017-03-02T00:05:00Z,27.4980,-83.7220,3.0,3.8,163.29,4.57,'1111122,1111122,1111122' 
COMPS,ioos:station:USF.COMPS:C12:1,2017-03-02T00:35:00Z,27.4980,-83.7220,3.0,3.05,179.29,3.85,'1111122,1111122,1111122' 
COMPS,ioos:station:USF.COMPS:C12:1,2017-03-02T01:05:00Z,27.4980,-83.7220,3.0,2.8,185.75,3.56,'1111122,1111122,1111122' 
COMPS,ioos:station:USF.COMPS:C12:1,2017-03-02T01:35:00Z,27.4980,-83.7220,3.0,3.45,178.96,4.04,'1111122,1111122,1111122' 
COMPS,ioos:station:USF.COMPS:C12:1,2017-03-02T02:05:00Z,27.4980,-83.7220,3.0,2.81,235.34,3.45,'1111122,1111122,1111122' 
COMPS,ioos:station:USF.COMPS:C12:1,2017-03-02T02:35:00Z,27.4980,-83.7220,3.0,2.4,253.19,2.84,'1111122,1111122,1111122' 
COMPS,ioos:station:USF.COMPS:C12:1,2017-03-02T03:05:00Z,27.4980,-83.7220,3.0,2.7,255.28,3.26,'1111122,1111122,1111122' 
COMPS,ioos:station:USF.COMPS:C12:1,2017-03-02T03:35:00Z,27.4980,-83.7220,3.0,2.94,260.75,3.52,'1111122,1111122,1111122' 
COMPS,ioos:station:USF.COMPS:C12:1,2017-03-02T04:05:00Z,27.4980,-83.7220,3.0,3.91,268.01,4.72,'1111122,1111122,1111122' 
COMPS,ioos:station:USF.COMPS:C12:1,2017-03-02T04:35:00Z,27.4980,-83.7220,3.0,3.64,258.53,4.24,'1111122,1111122,1111122' 
COMPS,ioos:station:USF.COMPS:C12:1,2017-03-02T05:05:00Z,27.4980,-83.7220,3.0,4.6,286.65,5.53,'1111122,1111122,1111122' 
COMPS,ioos:station:USF.COMPS:C12:1,2017-03-02T05:35:00Z,27.4980,-83.7220,3.0,3.3,289.39,4.5,'1111122,1111122,1111122' 
COMPS,ioos:station:USF.COMPS:C12:1,2017-03-02T06:05:00Z,27.4980,-83.7220,3.0,1.49,225.85,2.99,'1111122,1111122,1111122' 
COMPS,ioos:station:USF.COMPS:C12:1,2017-03-02T06:35:00Z,27.4980,-83.7220,3.0,2.11,186.08,2.61,'1111122,1111122,1111122' 
COMPS,ioos:station:USF.COMPS:C12:1,2017-03-02T07:05:00Z,27.4980,-83.7220,3.0,2.42,175.72,2.99,'1111122,1111122,1111122' 
COMPS,ioos:station:USF.COMPS:C12:1,2017-03-02T07:35:00Z,27.4980,-83.7220,3.0,4.33,164.77,5.28,'1111122,1111122,1111122' 
COMPS,ioos:station:USF.COMPS:C12:1,2017-03-02T08:05:00Z,27.4980,-83.7220,3.0,2.45,191.71,3.61,'1111122,1111122,1111122' 
COMPS,ioos:station:USF.COMPS:C12:1,2017-03-02T08:35:00Z,27.4980,-83.7220,3.0,2.28,250.63,2.73,'1111122,1111122,1111122' 
COMPS,ioos:station:USF.COMPS:C12:1,2017-03-02T09:05:00Z,27.4980,-83.7220,3.0,2.91,186.39,3.7,'1111122,1111122,1111122' 
COMPS,ioos:station:USF.COMPS:C12:1,2017-03-02T09:35:00Z,27.4980,-83.7220,3.0,4.01,182.17,5.03,'1111122,1111122,1111122' 
COMPS,ioos:station:USF.COMPS:C12:1,2017-03-02T10:05:00Z,27.4980,-83.7220,3.0,4.03,184.76,4.91,'1111122,1111122,1111122' 
COMPS,ioos:station:USF.COMPS:C12:1,2017-03-02T10:35:00Z,27.4980,-83.7220,3.0,3.92,190.66,5.21,'1111122,1111122,1111122' 
COMPS,ioos:station:USF.COMPS:C12:1,2017-03-02T11:05:00Z,27.4980,-83.7220,3.0,3.05,211.63,4.09,'1111122,1111122,1111122' 
COMPS,ioos:station:USF.COMPS:C12:1,2017-03-02T11:35:00Z,27.4980,-83.7220,3.0,3.13,203.72,3.82,'1111122,1111122,1111122' 
COMPS,ioos:station:USF.COMPS:C12:1,2017-03-02T12:05:00Z,27.4980,-83.7220,3.0,2.46,229.78,3.11,'1111122,1111122,1111122' 
COMPS,ioos:station:USF.COMPS:C12:1,2017-03-02T12:35:00Z,27.4980,-83.7220,3.0,2.54,229.75,3.07,'1111122,1111122,1111122' 
COMPS,ioos:station:USF.COMPS:C12:1,2017-03-02T13:05:00Z,27.4980,-83.7220,3.0,3.41,245.56,4.07,'1111122,1111122,1111122' 
COMPS,ioos:station:USF.COMPS:C12:1,2017-03-02T13:35:00Z,27.4980,-83.7220,3.0,2.85,214.63,3.4,'1111122,1111122,1111122' 
COMPS,ioos:station:USF.COMPS:C12:1,2017-03-02T15:05:00Z,27.4980,-83.7220,3.0,2.48,225.63,3.08,'1111122,1111122,1111122' 
COMPS,ioos:station:USF.COMPS:C12:1,2017-03-02T15:35:00Z,27.4980,-83.7220,3.0,2.27,235.84,2.72,'1111122,1111122,1111122' 
COMPS,ioos:station:USF.COMPS:C12:1,2017-03-02T16:05:00Z,27.4980,-83.7220,3.0,2.32,231.58,2.78,'1111122,1111122,1111122' 
COMPS,ioos:station:USF.COMPS:C12:1,2017-03-02T16:35:00Z,27.4980,-83.7220,3.0,2.52,239.82,2.99,'1111122,1111122,1111122' 
COMPS,ioos:station:USF.COMPS:C12:1,2017-03-02T17:05:00Z,27.4980,-83.7220,3.0,3.04,242.73,3.98,'1111122,1111122,1111122' 
COMPS,ioos:station:USF.COMPS:C12:1,2017-03-02T17:35:00Z,27.4980,-83.7220,3.0,3.45,240.33,4.32,'1111122,1111122,1111122' 
COMPS,ioos:station:USF.COMPS:C12:1,2017-03-02T18:05:00Z,27.4980,-83.7220,3.0,3.58,226.88,4.24,'1111122,1111122,1111122' 
COMPS,ioos:station:USF.COMPS:C12:1,2017-03-02T18:35:00Z,27.4980,-83.7220,3.0,3.31,236.82,4.07,'1111122,1111122,1111122' 
COMPS,ioos:station:USF.COMPS:C12:1,2017-03-02T19:05:00Z,27.4980,-83.7220,3.0,3.4,238.34,4.05,'1111122,1111122,1111122' 
COMPS,ioos:station:USF.COMPS:C12:1,2017-03-02T19:35:00Z,27.4980,-83.7220,3.0,3.47,250.35,4.18,'1111122,1111122,1111122' 
COMPS,ioos:station:USF.COMPS:C12:1,2017-03-02T20:05:00Z,27.4980,-83.7220,3.0,4.19,295.57,5.89,'1111122,1111122,1111122' 
COMPS,ioos:station:USF.COMPS:C12:1,2017-03-02T20:35:00Z,27.4980,-83.7220,3.0,7.36,3.32,8.86,'1111122,1111122,1111122' 
COMPS,ioos:station:USF.COMPS:C12:1,2017-03-02T21:05:00Z,27.4980,-83.7220,3.0,7.81,14.21,9.33,'1111122,1111122,1111122' 
COMPS,ioos:station:USF.COMPS:C12:1,2017-03-02T21:35:00Z,27.4980,-83.7220,3.0,8.56,10.41,10.37,'1111122,1111122,1111122' 
COMPS,ioos:station:USF.COMPS:C12:1,2017-03-02T22:05:00Z,27.4980,-83.7220,3.0,8.98,14.21,10.64,'1111122,1111122,1111122' 
COMPS,ioos:station:USF.COMPS:C12:1,2017-03-02T22:35:00Z,27.4980,-83.7220,3.0,9.49,14.74,11.36,'1111122,1111122,1111122' 
COMPS,ioos:station:USF.COMPS:C12:1,2017-03-02T23:05:00Z,27.4980,-83.7220,3.0,9.66,16.27,11.08,'1111122,1111122,1111122' 
COMPS,ioos:station:USF.COMPS:C12:1,2017-03-02T23:35:00Z,27.4980,-83.7220,3.0,9.25,15.75,11.25,'1111122,1111122,1111122' 
COMPS,ioos:station:USF.COMPS:C12:1,2017-03-03T00:05:00Z,27.4980,-83.7220,3.0,9.18,25.09,11.21,'1111122,1111122,1111122' 
COMPS,ioos:station:USF.COMPS:C12:1,2017-03-03T00:35:00Z,27.4980,-83.7220,3.0,8.09,36.77,9.7,'1111122,1111122,1111122' 
COMPS,ioos:station:USF.COMPS:C12:1,2017-03-03T01:05:00Z,27.4980,-83.7220,3.0,8.12,20.11,9.84,'1111122,1111122,1111122' 
COMPS,ioos:station:USF.COMPS:C12:1,2017-03-03T01:35:00Z,27.4980,-83.7220,3.0,8.5,15.11,10.37,'1111122,1111122,1111122' 
COMPS,ioos:station:USF.COMPS:C12:1,2017-03-03T02:05:00Z,27.4980,-83.7220,3.0,8.86,19.06,10.59,'1111122,1111122,1111122' 
COMPS,ioos:station:USF.COMPS:C12:1,2017-03-03T02:35:00Z,27.4980,-83.7220,3.0,8.98,23.09,10.66,'1111122,1111122,1111122' 
COMPS,ioos:station:USF.COMPS:C12:1,2017-03-03T03:05:00Z,27.4980,-83.7220,3.0,9.01,24.13,11.52,'1111122,1111122,1111122' 
COMPS,ioos:station:USF.COMPS:C12:1,2017-03-03T03:35:00Z,27.4980,-83.7220,3.0,9.67,27.33,11.62,'1111122,1111122,1111122' 
COMPS,ioos:station:USF.COMPS:C12:1,2017-03-03T04:05:00Z,27.4980,-83.7220,3.0,9.64,32.25,12.49,'1111122,1111122,1111122' 
COMPS,ioos:station:USF.COMPS:C12:1,2017-03-03T04:35:00Z,27.4980,-83.7220,3.0,10.32,32.66,12.64,'1111122,1111122,1111122' 
COMPS,ioos:station:USF.COMPS:C12:1,2017-03-03T05:05:00Z,27.4980,-83.7220,3.0,10.28,39.79,12.79,'1111122,1111122,1111122' 
COMPS,ioos:station:USF.COMPS:C12:1,2017-03-03T05:35:00Z,27.4980,-83.7220,3.0,10.45,35.45,12.73,'1111122,1111122,1111122' 
COMPS,ioos:station:USF.COMPS:C12:1,2017-03-03T06:05:00Z,27.4980,-83.7220,3.0,10.69,33.31,13.19,'1111122,1111122,1111122' 
COMPS,ioos:station:USF.COMPS:C12:1,2017-03-03T06:35:00Z,27.4980,-83.7220,3.0,11.05,32.22,13.52,'1111122,1111122,1111122' 
COMPS,ioos:station:USF.COMPS:C12:1,2017-03-03T07:05:00Z,27.4980,-83.7220,3.0,10.8,37.87,13.93,'1111122,1111122,1111122' 
COMPS,ioos:station:USF.COMPS:C12:1,2017-03-03T07:35:00Z,27.4980,-83.7220,3.0,11.28,40.7,14.7,'1111122,1111122,1111122' 
COMPS,ioos:station:USF.COMPS:C12:1,2017-03-03T08:05:00Z,27.4980,-83.7220,3.0,11.22,45.88,14.09,'1111122,1111122,1111122' 
COMPS,ioos:station:USF.COMPS:C12:1,2017-03-03T08:35:00Z,27.4980,-83.7220,3.0,11.57,43.04,15.12,'1111122,1111122,1111122' 
COMPS,ioos:station:USF.COMPS:C12:1,2017-03-03T09:05:00Z,27.4980,-83.7220,3.0,11.87,38.94,14.92,'1111122,1111122,1111122' 
COMPS,ioos:station:USF.COMPS:C12:1,2017-03-03T09:35:00Z,27.4980,-83.7220,3.0,11.5,38.97,14.67,'1111122,1111122,1111122' 
COMPS,ioos:station:USF.COMPS:C12:1,2017-03-03T10:05:00Z,27.4980,-83.7220,3.0,12.12,43.52,14.73,'1111122,1111122,1111122' 
COMPS,ioos:station:USF.COMPS:C12:1,2017-03-03T10:35:00Z,27.4980,-83.7220,3.0,11.64,40.73,14.87,'1111122,1111122,1111122' 
COMPS,ioos:station:USF.COMPS:C12:1,2017-03-03T11:05:00Z,27.4980,-83.7220,3.0,11.57,46.26,14.47,'1111122,1111122,1111122' 
COMPS,ioos:station:USF.COMPS:C12:1,2017-03-03T11:35:00Z,27.4980,-83.7220,3.0,12.0,44.04,14.78,'1111122,1111122,1111122' 
COMPS,ioos:station:USF.COMPS:C12:1,2017-03-03T12:05:00Z,27.4980,-83.7220,3.0,11.98,43.65,15.5,'1111122,1111122,1111122' 
COMPS,ioos:station:USF.COMPS:C12:1,2017-03-03T12:35:00Z,27.4980,-83.7220,3.0,12.29,41.78,15.66,'1111122,1111122,1111122' 
COMPS,ioos:station:USF.COMPS:C12:1,2017-03-03T13:05:00Z,27.4980,-83.7220,3.0,12.56,42.15,15.52,'1111122,1111122,1111122' 
COMPS,ioos:station:USF.COMPS:C12:1,2017-03-03T13:35:00Z,27.4980,-83.7220,3.0,12.07,41.67,15.23,'1111122,1111122,1111122' 
COMPS,ioos:station:USF.COMPS:C12:1,2017-03-03T14:05:00Z,27.4980,-83.7220,3.0,11.58,42.23,14.68,'1111122,1111122,1111122' 
COMPS,ioos:station:USF.COMPS:C12:1,2017-03-03T14:35:00Z,27.4980,-83.7220,3.0,11.15,47.31,14.36,'1111122,1111122,1111122' 
COMPS,ioos:station:USF.COMPS:C12:1,2017-03-03T15:05:00Z,27.4980,-83.7220,3.0,11.05,41.32,14.07,'1111122,1111122,1111122' 
COMPS,ioos:station:USF.COMPS:C12:1,2017-03-03T15:35:00Z,27.4980,-83.7220,3.0,11.14,41.8,14.7,'1111122,1111122,1111122' 
COMPS,ioos:station:USF.COMPS:C12:1,2017-03-03T16:05:00Z,27.4980,-83.7220,3.0,11.0,45.88,13.91,'1111122,1111122,1111122' 
COMPS,ioos:station:USF.COMPS:C12:1,2017-03-03T16:35:00Z,27.4980,-83.7220,3.0,11.13,41.96,14.07,'1111122,1111122,1111122' 
COMPS,ioos:station:USF.COMPS:C12:1,2017-03-03T17:05:00Z,27.4980,-83.7220,3.0,10.98,39.48,13.66,'1111122,1111122,1111122' 
COMPS,ioos:station:USF.COMPS:C12:1,2017-03-03T17:35:00Z,27.4980,-83.7220,3.0,10.63,35.6,12.89,'1111122,1111122,1111122' 
COMPS,ioos:station:USF.COMPS:C12:1,2017-03-03T18:05:00Z,27.4980,-83.7220,3.0,10.9,37.17,14.98,'1111122,1111122,1111122' 
COMPS,ioos:station:USF.COMPS:C12:1,2017-03-03T18:35:00Z,27.4980,-83.7220,3.0,9.97,37.21,12.77,'1111122,1111122,1111122' 
COMPS,ioos:station:USF.COMPS:C12:1,2017-03-03T19:05:00Z,27.4980,-83.7220,3.0,10.22,33.53,12.6,'1111122,1111122,1111122' 
COMPS,ioos:station:USF.COMPS:C12:1,2017-03-03T19:35:00Z,27.4980,-83.7220,3.0,10.63,31.44,12.76,'1111122,1111122,1111122' 
COMPS,ioos:station:USF.COMPS:C12:1,2017-03-03T20:05:00Z,27.4980,-83.7220,3.0,10.74,33.44,13.09,'1111122,1111122,1111122' 
COMPS,ioos:station:USF.COMPS:C12:1,2017-03-03T20:35:00Z,27.4980,-83.7220,3.0,10.49,32.51,13.3,'1111122,1111122,1111122' 
COMPS,ioos:station:USF.COMPS:C12:1,2017-03-03T21:05:00Z,27.4980,-83.7220,3.0,10.77,31.63,13.4,'1111122,1111122,1111122' 
COMPS,ioos:station:USF.COMPS:C12:1,2017-03-03T21:35:00Z,27.4980,-83.7220,3.0,10.75,29.82,12.85,'1111122,1111122,1111122' 
COMPS,ioos:station:USF.COMPS:C12:1,2017-03-03T22:05:00Z,27.4980,-83.7220,3.0,10.99,27.6,13.88,'1111122,1111122,1111122' 
COMPS,ioos:station:USF.COMPS:C12:1,2017-03-03T22:35:00Z,27.4980,-83.7220,3.0,10.86,31.42,13.57,'1111122,1111122,1111122' 
COMPS,ioos:station:USF.COMPS:C12:1,2017-03-03T23:05:00Z,27.4980,-83.7220,3.0,11.03,29.15,13.97,'1111122,1111122,1111122' 
COMPS,ioos:station:USF.COMPS:C12:1,2017-03-03T23:35:00Z,27.4980,-83.7220,3.0,10.83,32.29,13.89,'1111122,1111122,1111122' 
COMPS,ioos:station:USF.COMPS:C12:1,2017-03-04T00:05:00Z,27.4980,-83.7220,3.0,11.24,29.88,13.89,'1111122,1111122,1111122' 
COMPS,ioos:station:USF.COMPS:C12:1,2017-03-04T00:35:00Z,27.4980,-83.7220,3.0,11.48,30.23,14.12,'1111122,1111122,1111122' 
COMPS,ioos:station:USF.COMPS:C12:1,2017-03-04T01:05:00Z,27.4980,-83.7220,3.0,11.82,34.93,15.77,'1111122,1111122,1111122' 
COMPS,ioos:station:USF.COMPS:C12:1,2017-03-04T01:35:00Z,27.4980,-83.7220,3.0,11.81,38.73,14.06,'1111122,1111122,1111122' 
COMPS,ioos:station:USF.COMPS:C12:1,2017-03-04T02:05:00Z,27.4980,-83.7220,3.0,11.6,43.19,14.44,'1111122,1111122,1111122' 
COMPS,ioos:station:USF.COMPS:C12:1,2017-03-04T02:35:00Z,27.4980,-83.7220,3.0,11.22,49.92,13.83,'1111122,1111122,1111122' 
COMPS,ioos:station:USF.COMPS:C12:1,2017-03-04T03:05:00Z,27.4980,-83.7220,3.0,11.34,56.16,13.78,'1111122,1111122,1111122' 
COMPS,ioos:station:USF.COMPS:C12:1,2017-03-04T03:35:00Z,27.4980,-83.7220,3.0,10.47,58.34,12.92,'1111122,1111122,1111122' 
COMPS,ioos:station:USF.COMPS:C12:1,2017-03-04T04:05:00Z,27.4980,-83.7220,3.0,10.51,62.52,13.31,'1111122,1111122,1111122' 
COMPS,ioos:station:USF.COMPS:C12:1,2017-03-04T04:35:00Z,27.4980,-83.7220,3.0,10.97,61.27,12.92,'1111122,1111122,1111122' 
COMPS,ioos:station:USF.COMPS:C12:1,2017-03-04T05:05:00Z,27.4980,-83.7220,3.0,10.13,60.44,12.78,'1111122,1111122,1111122' 
COMPS,ioos:station:USF.COMPS:C12:1,2017-03-04T05:35:00Z,27.4980,-83.7220,3.0,10.42,67.21,13.12,'1111122,1111122,1111122' 
COMPS,ioos:station:USF.COMPS:C12:1,2017-03-04T06:05:00Z,27.4980,-83.7220,3.0,10.02,61.4,12.12,'1111122,1111122,1111122' 
COMPS,ioos:station:USF.COMPS:C12:1,2017-03-04T06:35:00Z,27.4980,-83.7220,3.0,9.6,65.08,11.52,'1111122,1111122,1111122' 
COMPS,ioos:station:USF.COMPS:C12:1,2017-03-04T07:05:00Z,27.4980,-83.7220,3.0,9.35,62.62,11.92,'1111122,1111122,1111122' 
COMPS,ioos:station:USF.COMPS:C12:1,2017-03-04T07:35:00Z,27.4980,-83.7220,3.0,9.28,65.82,11.34,'1111122,1111122,1111122' 
COMPS,ioos:station:USF.COMPS:C12:1,2017-03-04T08:05:00Z,27.4980,-83.7220,3.0,9.4,64.7,11.47,'1111122,1111122,1111122' 
COMPS,ioos:station:USF.COMPS:C12:1,2017-03-04T08:35:00Z,27.4980,-83.7220,3.0,9.15,65.04,11.57,'1111122,1111122,1111122' 
COMPS,ioos:station:USF.COMPS:C12:1,2017-03-04T09:05:00Z,27.4980,-83.7220,3.0,10.1,67.21,12.65,'1111122,1111122,1111122' 
COMPS,ioos:station:USF.COMPS:C12:1,2017-03-04T09:35:00Z,27.4980,-83.7220,3.0,10.76,66.43,13.24,'1111122,1111122,1111122' 
COMPS,ioos:station:USF.COMPS:C12:1,2017-03-04T10:05:00Z,27.4980,-83.7220,3.0,10.71,65.32,13.74,'1111122,1111122,1111122' 
COMPS,ioos:station:USF.COMPS:C12:1,2017-03-04T10:35:00Z,27.4980,-83.7220,3.0,10.65,67.38,13.15,'1111122,1111122,1111122' 
COMPS,ioos:station:USF.COMPS:C12:1,2017-03-04T11:05:00Z,27.4980,-83.7220,3.0,10.75,69.92,13.1,'1111122,1111122,1111122' 
COMPS,ioos:station:USF.COMPS:C12:1,2017-03-04T11:35:00Z,27.4980,-83.7220,3.0,10.54,66.69,12.89,'1111122,1111122,1111122' 
COMPS,ioos:station:USF.COMPS:C12:1,2017-03-04T12:05:00Z,27.4980,-83.7220,3.0,10.27,70.17,13.28,'1111122,1111122,1111122' 
COMPS,ioos:station:USF.COMPS:C12:1,2017-03-04T12:35:00Z,27.4980,-83.7220,3.0,10.98,68.42,13.55,'1111122,1111122,1111122' 
COMPS,ioos:station:USF.COMPS:C12:1,2017-03-04T13:05:00Z,27.4980,-83.7220,3.0,10.43,71.44,12.88,'1111122,1111122,1111122' 
COMPS,ioos:station:USF.COMPS:C12:1,2017-03-04T13:35:00Z,27.4980,-83.7220,3.0,10.64,62.7,12.95,'1111122,1111122,1111122' 
COMPS,ioos:station:USF.COMPS:C12:1,2017-03-04T14:05:00Z,27.4980,-83.7220,3.0,9.62,66.43,12.14,'1111122,1111122,1111122' 
COMPS,ioos:station:USF.COMPS:C12:1,2017-03-04T14:35:00Z,27.4980,-83.7220,3.0,10.08,62.98,12.55,'1111122,1111122,1111122' 
COMPS,ioos:station:USF.COMPS:C12:1,2017-03-04T15:05:00Z,27.4980,-83.7220,3.0,10.02,56.63,12.02,'1111122,1111122,1111122' 
COMPS,ioos:station:USF.COMPS:C12:1,2017-03-04T15:35:00Z,27.4980,-83.7220,3.0,9.65,61.32,11.71,'1111122,1111122,1111122' 
COMPS,ioos:station:USF.COMPS:C12:1,2017-03-04T16:05:00Z,27.4980,-83.7220,3.0,9.65,60.86,12.05,'1111122,1111122,1111122' 
COMPS,ioos:station:USF.COMPS:C12:1,2017-03-04T16:35:00Z,27.4980,-83.7220,3.0,9.39,63.53,11.45,'1111122,1111122,1111122' 
COMPS,ioos:station:USF.COMPS:C12:1,2017-03-04T17:05:00Z,27.4980,-83.7220,3.0,9.0,60.73,11.4,'1111122,1111122,1111122' 
COMPS,ioos:station:USF.COMPS:C12:1,2017-03-04T17:35:00Z,27.4980,-83.7220,3.0,8.62,62.21,10.9,'1111122,1111122,1111122' 
COMPS,ioos:station:USF.COMPS:C12:1,2017-03-04T18:05:00Z,27.4980,-83.7220,3.0,8.68,64.46,10.52,'1111122,1111122,1111122' 
COMPS,ioos:station:USF.COMPS:C12:1,2017-03-04T18:35:00Z,27.4980,-83.7220,3.0,8.18,65.45,10.15,'1111122,1111122,1111122' 
COMPS,ioos:station:USF.COMPS:C12:1,2017-03-04T19:05:00Z,27.4980,-83.7220,3.0,8.03,59.68,9.98,'1111122,1111122,1111122' 
COMPS,ioos:station:USF.COMPS:C12:1,2017-03-04T19:35:00Z,27.4980,-83.7220,3.0,7.7,58.67,8.96,'1111122,1111122,1111122' 
COMPS,ioos:station:USF.COMPS:C12:1,2017-03-04T20:05:00Z,27.4980,-83.7220,3.0,7.66,50.86,9.57,'1111122,1111122,1111122' 
COMPS,ioos:station:USF.COMPS:C12:1,2017-03-04T20:35:00Z,27.4980,-83.7220,3.0,7.45,43.02,9.56,'1111122,1111122,1111122' 
COMPS,ioos:station:USF.COMPS:C12:1,2017-03-04T21:05:00Z,27.4980,-83.7220,3.0,7.2,35.32,8.88,'1111122,1111122,1111122' 
COMPS,ioos:station:USF.COMPS:C12:1,2017-03-04T21:35:00Z,27.4980,-83.7220,3.0,7.48,32.6,9.09,'1111122,1111122,1111122' 
COMPS,ioos:station:USF.COMPS:C12:1,2017-03-04T22:05:00Z,27.4980,-83.7220,3.0,7.52,27.97,9.26,'1111122,1111122,1111122' 
COMPS,ioos:station:USF.COMPS:C12:1,2017-03-04T22:35:00Z,27.4980,-83.7220,3.0,8.37,30.64,10.3,'1111122,1111122,1111122' 
COMPS,ioos:station:USF.COMPS:C12:1,2017-03-04T23:05:00Z,27.4980,-83.7220,3.0,8.5,31.14,10.33,'1111122,1111122,1111122' 
COMPS,ioos:station:USF.COMPS:C12:1,2017-03-04T23:35:00Z,27.4980,-83.7220,3.0,8.21,29.87,9.91,'1111122,1111122,1111122' 
COMPS,ioos:station:USF.COMPS:C12:1,2017-03-05T00:05:00Z,27.4980,-83.7220,3.0,8.34,31.2,10.01,'1111122,1111122,1111122' 
COMPS,ioos:station:USF.COMPS:C12:1,2017-03-05T00:35:00Z,27.4980,-83.7220,3.0,8.94,35.54,10.7,'1111122,1111122,1111122' 
COMPS,ioos:station:USF.COMPS:C12:1,2017-03-05T01:05:00Z,27.4980,-83.7220,3.0,9.32,39.24,11.06,'1111122,1111122,1111122' 
COMPS,ioos:station:USF.COMPS:C12:1,2017-03-05T01:35:00Z,27.4980,-83.7220,3.0,9.58,42.19,11.32,'1111122,1111122,1111122' 
COMPS,ioos:station:USF.COMPS:C12:1,2017-03-05T02:05:00Z,27.4980,-83.7220,3.0,8.63,51.1,10.49,'1111122,1111122,1111122' 
COMPS,ioos:station:USF.COMPS:C12:1,2017-03-05T02:35:00Z,27.4980,-83.7220,3.0,8.61,94.41,11.26,'1111122,1111122,1111122' 
COMPS,ioos:station:USF.COMPS:C12:1,2017-03-05T03:05:00Z,27.4980,-83.7220,3.0,10.55,93.11,13.52,'1111122,1111122,1111122' 